Regional Weather Roundup
Issued by NWS

Home | Current Version | Previous Version | Text Only | Print | Product List | Glossary Off
Versions: 1 2 3 4 5 6 7 8 9 10 11 12 13 14 15 16 17 18 19 20 21 22 23 24 25 26 27 28

000
ASUS45 KPSR 220910
RWRAZ

ARIZONA HOURLY REGIONAL WEATHER ROUNDUP
NATIONAL WEATHER SERVICE PHOENIX AZ
200 AM MST WED FEB 22 2017

NOTE: FAIR INDICATES FEW OR NO CLOUDS BELOW 12,000 FEET WITH NO
SIGNIFICANT WEATHER AND/OR OBSTRUCTIONS TO VISIBILITY.

AZZ001>003-036-221000-
NORTHWEST ARIZONA

CITY           SKY/WX    TMP DP  RH WIND       PRES   REMARKS
BULLHEAD CITY  MOCLDY    57  54  88 CALM      30.07F
KINGMAN        MOCLDY    51  37  58 SE5       30.12F
$$

AZZ004>008-015-016-018-221000-
NORTH CENTRAL ARIZONA

CITY           SKY/WX    TMP DP  RH WIND       PRES   REMARKS
WILLIAMS       CLEAR     45  37  76 SW16G28   30.19F
PRESCOTT       PTCLDY    44  39  82 N3        30.19F
FLAGSTAFF      CLOUDY    41  41 100 W5        30.23F
PAYSON         CLEAR     45  43  93 CALM      30.24F
PAGE           MOCLDY    51  32  48 CALM      30.07F
$$

AZZ009>014-017-221000-
NORTHEAST ARIZONA

CITY           SKY/WX    TMP DP  RH WIND       PRES   REMARKS
WINSLOW        CLEAR     41  38  89 SE6       30.16F
SAINT JOHNS    CLEAR     39  34  82 S7        30.20F WCI  34
WINDOW ROCK    CLEAR     39  34  82 SW9       30.20F WCI  33
SHOW LOW       CLEAR     45  36  70 S10       30.25F
$$

AZZ023-221000-
GREATER PHOENIX AREA

CITY           SKY/WX    TMP DP  RH WIND       PRES   REMARKS
PHOENIX        PTCLDY    59  54  83 E7        30.08F
BUCKEYE        CLEAR     55  55 100 NE3       30.08F
LUKE AFB       CLEAR     56  56 100 NW8       30.07F
DEER VALLEY    CLEAR     58  52  80 NE5       30.08F
SCOTTSDALE     CLEAR     57  52  83 CALM      30.13F
MESA-GATEWAY   CLEAR     54  52  94 SE6       30.11F
$$

AZZ027-028-221000-
SOUTHWEST MARICOPA COUNTY AND PINAL COUNTY

CITY           SKY/WX    TMP DP  RH WIND       PRES   REMARKS
CASA GRANDE    NOT AVBL
GILA BEND      FAIR      59  51  75 SE7       30.07F
$$

AZZ503-504-507>509-221000-
SOUTHEAST ARIZONA

CITY           SKY/WX    TMP DP  RH WIND       PRES   REMARKS
TUCSON         CLEAR     53  46  77 CALM      30.16F
DAVIS-MONTHAN  CLEAR     52  46  79 SE7       30.15F
NOGALES        CLEAR     44  36  73 CALM      30.19F
SIERRA VISTA   CLEAR     47  37  69 CALM      30.23F
DOUGLAS        CLEAR     45  36  70 N7        30.19F
SAFFORD        CLEAR     46  38  73 SE5       30.15F
$$

AZZ020-021-025-026-031-221000-
SOUTHWEST ARIZONA

CITY           SKY/WX    TMP DP  RH WIND       PRES   REMARKS
YUMA           CLEAR     60  53  77 CALM      30.06F
$$

CAZ031-033-041-043-047-048-061-221000-
SOUTHERN CALIFORNIA

CITY           SKY/WX    TMP DP  RH WIND       PRES   REMARKS
DOWNTOWN L.A.  CLOUDY    57  55  93 CALM      30.19F
L.A. AIRPORT   PTCLDY    57  56  96 W9        30.19F
SAN DIEGO      MOCLDY    58  53  84 CALM      30.21F
BURBANK        MOCLDY    52  49  89 NW5       30.18F
ONTARIO        MOCLDY    54  50  86 W6        30.18F
RIVERSIDE      PTCLDY    54  51  90 CALM      30.19F
PALM SPRINGS   MOCLDY    60  50  69 CALM      30.08F
EL CENTRO NAS  PTCLDY    61  50  67 W3        30.08F
IMPERIAL       PTCLDY    63  47  55 NW5       30.06F
BLYTHE         PTCLDY    61  51  70 SW7       30.06F
NEEDLES        MOCLDY    59  53  80 SW8       30.07F
$$

NVZ020-UTZ003-221000-
SOUTHERN NEVADA-UTAH

CITY           SKY/WX    TMP DP  RH WIND       PRES   REMARKS
LAS VEGAS      CLOUDY    59  40  49 S14G23    30.00F
SALT LAKE CITY CLOUDY    36  34  92 S7        30.07F WCI  30
$$

NMZ009-TXZ055-221000-
NEW MEXICO-WEST TEXAS

CITY           SKY/WX    TMP DP  RH WIND       PRES   REMARKS
ALBUQUERQUE    CLEAR     46  33  60 SE10      30.18F
EL PASO        CLEAR     61  30  31 W9        30.13F
$$


........................KEY........................
SKY/WX - SKY CONDITION/WEATHER
TMP    - TEMPERATURE IN FAHRENHEIT
DP     - DEW POINT IN FAHRENHEIT
RH     - RELATIVE HUMIDITY IN PERCENT
WIND   - DIRECTION AND SPEED IN MILES PER HOUR (MPH)
VRB    - VARIABLE WIND DIRECTION
PRES   - MEAN SEA LEVEL PRESSURE IN INCHES OF MERCURY
         F - FALLING PRESSURE   R - RISING PRESSURE
         S - STEADY PRESSURE
VSB    - VISIBILITY IN MILES
HX     - HEAT INDEX IN FAHRENHEIT
WCI    - WIND CHILL INDEX IN FAHRENHEIT
TC     - TEMPERATURE IN CELSIUS WHICH IS ALSO KNOWN AS
         TEMPERATURE IN CENTIGRADE
AFB    - AIR FORCE BASE
         LUKE AFB IS LUKE AIR FORCE BASE
         DAVIS-MONTHAN IS DAVIS-MONTHAN AIR FORCE BASE
NAS    - NAVAL AIR STATION
         EL CENTRO NAS IS EL CENTRO NAVAL AIR STATION
N/A    - NOT AVAILABLE





USA.gov is the U.S. government's official web portal to all federal, state and local government web resources and services.